Location: Limerick
(52.6650°N, 8.6230°W)
Time: 22:02:39
(UTC+00:00)

N. Korean satellite - Visible Passes

Search period start: 12 November 2019 00:00
Search period end: 22 November 2019 00:00
Orbit: 456 x 506 km, 97.2° (Epoch: 12 November)

Date Brightness Start Highest point End Pass type
(mag) Time Alt. Az. Time Alt. Az. Time Alt. Az.
12 Nov 8.8 05:58:48 10° NNE 06:02:08 30° E 06:05:26 10° SSE visible
12 Nov 8.9 18:13:17 10° SSW 18:16:28 29° W 18:19:43 10° NNW visible
13 Nov 9.8 05:34:01 10° NE 05:36:34 17° E 05:39:05 10° SE visible
13 Nov 6.8 07:06:36 10° N 07:10:14 51° WNW 07:13:51 10° SSW visible
13 Nov 7.5 17:47:25 10° S 17:50:58 54° W 17:54:36 10° NNW visible
14 Nov 6.7 06:41:09 10° NNE 06:44:55 86° ESE 06:48:37 10° SSW visible
14 Nov 6.6 17:21:57 10° SSE 17:25:34 79° ENE 17:29:16 10° NNW visible
14 Nov 10.2 18:58:22 10° WSW 18:59:31 11° W 19:00:40 10° WNW visible
15 Nov 7.9 06:15:52 10° NNE 06:19:29 45° E 06:23:03 10° S visible
15 Nov 9.6 18:31:08 10° SW 18:33:51 20° W 18:36:38 10° NW visible
16 Nov 9.1 05:50:49 10° NE 05:53:57 25° E 05:57:05 10° SSE visible
16 Nov 8.5 18:04:56 10° SSW 18:08:17 35° W 18:11:44 10° NNW visible
17 Nov 10.0 05:26:13 10° NE 05:28:21 15° E 05:30:28 10° ESE visible
17 Nov 6.6 06:58:26 10° N 07:02:08 62° WNW 07:05:47 10° SSW visible
17 Nov 7.1 17:39:11 10° S 17:42:49 66° WSW 17:46:32 10° NNW visible
18 Nov 6.9 06:33:01 10° NNE 06:36:46 71° E 06:40:27 10° S visible
18 Nov 6.6 17:13:48 10° SSE 17:17:26 65° ENE 17:21:08 10° N visible
18 Nov 10.0 18:49:21 10° WSW 18:51:15 14° W 18:53:12 10° NW visible
19 Nov 8.3 06:07:48 10° NNE 06:11:18 37° E 06:14:44 10° SSE visible
19 Nov 9.2 18:22:37 10° SSW 18:25:37 24° W 18:28:41 10° NW visible
20 Nov 9.4 05:42:51 10° NE 05:45:44 21° E 05:48:36 10° SE visible
20 Nov 7.1 07:15:47 10° N 07:19:18 40° WNW 07:22:46 10° SW visible
20 Nov 8.0 17:56:34 10° S 18:00:05 42° W 18:03:39 10° NNW visible
21 Nov 10.2 05:18:34 10° ENE 05:20:05 12° E 05:21:34 10° ESE visible
21 Nov 6.5 06:50:15 10° N 06:53:59 75° WNW 06:57:39 10° SSW visible
21 Nov 6.8 17:30:57 10° SSE 17:34:37 81° WSW 17:38:22 10° NNW visible
